Location: Bittkow
(50.3000°N, 19.0000°E)
Time: 21:31:36
(UTC+00:00)

Cosmos 2218 Rocket - Pass Details

Date: 19 September 2020
Orbit: 956 x 1006 km, 82.9° (Epoch: 30 October)

Event Time Altitude Azimuth Distance (km) Brightness Sun altitude
Rises 01:16:00 0° 347° (NNW) 3,738 7.4 -28.3°
Reaches altitude 10° 01:18:36 10° 343° (NNW) 2,788 6.7 -28.0°
Enters shadow 01:24:05 51° 291° (WNW) 1,258 4.3 -27.4°
